Location: Newark
(49.9819°N, 3.0344°E)
Time: 11:28:04
(UTC+00:00)

ISS - Pass Details

Date: 02 February 2020
Orbit: 415 x 422 km, 51.6° (Epoch: 23 February)

Event Time Altitude Azimuth Distance (km) Brightness Sun altitude
Rises 19:53:32 0° 285° (WNW) 2,379 1.2 -30.7°
Reaches altitude 10° 19:55:55 10° 271° (W) 1,509 -0.1 -31.1°
Enters shadow 19:56:21 12° 266° (W) 1,371 -0.4 -31.1°
